Weather History for Enid Vance AFB, OK

Change the Weather History Date:

Sunday, November 25, 2012

  Actual Average Record
Temperature  
Mean Temperature 48 °F -  
Max Temperature 61 °F 52 °F 66 °F (1997)
Min Temperature 36 °F 34 °F 20 °F (2010)
Degree Days  
Heating Degree Days 16    
Moisture  
Dew Point 29 °F    
Average Humidity 49    
Maximum Humidity 63    
Minimum Humidity 31    
Precipitation  
Precipitation 0.00 in - - ()
Sea Level Pressure  
Sea Level Pressure 29.88 in    
Wind  
Wind Speed 8 mph (SE)    
Max Wind Speed 13 mph    
Max Gust Speed -    
Visibility 10 miles    
Events      
Averages and records for this station are not official NWS values.
T = Trace of Precipitation, MM = Missing Value Source: NWS Daily Summary

Daily Weather History Graph

Daily Weather History Graph

Search for Another Location

Airport:

Trip Planner

Search our weather history database for the weather conditions in past years. The results will help you decide how hot, cold, wet, or windy it might be!

Date:

Astronomy

Nov. 25, 2012 Rise Set
Actual Time 7:19 AM CST 5:18 PM CST
Civil Twilight 6:51 AM CST 5:46 PM CST
Nautical Twilight 6:19 AM CST 6:17 PM CST
Astronomical Twilight 5:48 AM CST 6:48 PM CST
Moon 3:33 PM CST (11/25) 4:37 AM CST (11/25)
Length of Visible Light 10h 54m
Length of Day
9h 58m
Waxing Gibbous, 93% of the Moon is Illuminated
Nov 25
Waxing Gibbous
Nov 28
Full
Dec 6
Last Quarter
Dec 13
New
Dec 19
First Quarter

Hourly Weather History & Observations

Time (CST) Temp. Windchill Dew Point Humidity Pressure Visibility Wind Dir Wind Speed Gust Speed Precip Events Conditions
12:55 AM 42.3 °F 35.5 °F 22.8 °F 46% 29.92 in 10.0 mi South 12.7 mph - N/A   Clear
1:55 AM 41.5 °F 35.4 °F 23.2 °F 48% 29.91 in 10.0 mi SSE 10.4 mph - N/A   Clear
2:55 AM 41.5 °F 36.4 °F 23.2 °F 48% 29.89 in 10.0 mi SSE 8.1 mph - N/A   Clear
3:55 AM 39.2 °F 33.0 °F 23.4 °F 53% 29.88 in 10.0 mi SSE 9.2 mph - N/A   Clear
4:55 AM 36.9 °F 31.4 °F 23.2 °F 58% 29.87 in 10.0 mi SSE 6.9 mph - N/A   Clear
5:55 AM 37.9 °F 32.7 °F 23.7 °F 57% 29.88 in 10.0 mi SSE 6.9 mph - N/A   Clear
6:55 AM 37.4 °F 30.8 °F 23.9 °F 58% 29.89 in 10.0 mi SSE 9.2 mph - N/A   Clear
7:55 AM 37.6 °F 33.1 °F 25.3 °F 61% 29.91 in 10.0 mi South 5.8 mph - N/A   Clear
8:55 AM 46.2 °F 42.7 °F 26.2 °F 46% 29.90 in 10.0 mi SSE 6.9 mph - N/A   Clear
9:55 AM 51.1 °F - 28.4 °F 42% 29.91 in 10.0 mi SSW 5.8 mph - N/A   Clear
10:55 AM 53.6 °F - 29.5 °F 40% 29.89 in 10.0 mi WSW 3.5 mph - N/A   Clear
11:55 AM 57.0 °F - 29.7 °F 35% 29.88 in 10.0 mi NE 3.5 mph - N/A   Clear
12:55 PM 60.4 °F - 30.0 °F 32% 29.84 in 10.0 mi East 3.5 mph - N/A   Clear
1:55 PM 60.8 °F - 30.0 °F 31% 29.83 in 10.0 mi ESE 8.1 mph - N/A   Clear
2:55 PM 61.3 °F - 31.5 °F 32% 29.83 in 10.0 mi Calm Calm - N/A   Clear
3:55 PM 61.0 °F - 32.4 °F 34% 29.84 in 10.0 mi SSE 4.6 mph - N/A   Clear
4:55 PM 58.8 °F - 32.9 °F 38% 29.85 in 10.0 mi Calm Calm - N/A   Clear
5:55 PM 53.1 °F - 34.0 °F 48% 29.85 in 10.0 mi Calm Calm - N/A   Clear
6:55 PM 45.0 °F 42.6 °F 32.0 °F 60% 29.86 in 10.0 mi NE 4.6 mph - N/A   Clear
7:55 PM 46.2 °F 42.7 °F 32.4 °F 58% 29.88 in 10.0 mi NNE 6.9 mph - N/A   Clear
8:55 PM 46.2 °F 43.3 °F 31.3 °F 56% 29.88 in 10.0 mi NNE 5.8 mph - N/A   Clear
9:55 PM 44.2 °F 40.3 °F 32.4 °F 63% 29.88 in 10.0 mi NE 6.9 mph - N/A   Clear
10:55 PM 46.4 °F 41.5 °F 33.3 °F 60% 29.88 in 10.0 mi NE 10.4 mph - N/A   Clear
11:55 PM 46.0 °F 40.6 °F 33.1 °F 61% 29.88 in 10.0 mi NE 11.5 mph - N/A   Clear